EW9372 Weather Reports


Display with metric or nautical units.
time (UTC)temp
F
wind
direction
speed
MPH
gust
MPH
rain 1hr
in
rain 24hr
in
rain mn
in
humidity
%
barometer
mb
20260906113846 60 186 0.0 0.0 0.00 0.00 0.00 67 1011.6
20260906112615 60 137 0.0 2.0 0.00 0.00 0.00 66 1011.5
20260906111147 60 148 1.0 3.0 0.00 0.00 0.00 66 1011.5
20260906110651 60 184 1.0 0.0 0.00 0.00 0.00 65 1011.4
20260906105420 60 203 2.0 5.0 0.00 0.00 0.00 64 1011.4
20260906104919 60 171 1.0 5.0 0.00 0.00 0.00 64 1011.4
20260906104418 60 181 1.0 5.0 0.00 0.00 0.00 63 1011.4
20260906103920 60 163 1.0 5.0 0.00 0.00 0.00 63 1011.4
20260906103915 61 171 1.0 0.0 0.00 0.00 0.00 62 1011.4
20260906102328 61 200 2.0 5.0 0.00 0.00 0.00 62 1011.6
20260906102323 61 190 2.0 1.0 0.00 0.00 0.00 62 1011.6
20260906100251 62 205 1.0 3.0 0.00 0.00 0.00 67 1011.6
20260906095750 62 182 1.0 0.0 0.00 0.00 0.00 68 1011.5
20260906094542 62 175 0.0 0.0 0.00 0.00 0.00 66 1011.4
20260906094041 63 165 0.0 0.0 0.00 0.00 0.00 65 1011.5
20260906093538 63 153 0.0 0.0 0.00 0.00 0.00 65 1011.6
20260906093030 63 144 0.0 0.0 0.00 0.00 0.00 64 1011.4
20260906091943 63 155 0.0 0.0 0.00 0.00 0.00 67 1011.4
20260906091440 63 169 0.0 0.0 0.00 0.00 0.00 66 1011.5
20260906090940 63 149 0.0 0.0 0.00 0.00 0.00 65 1011.6
20260906090437 63 136 0.0 0.0 0.00 0.00 0.00 65 1011.6
20260906085328 63 148 0.0 0.0 0.00 0.00 0.00 63 1011.7
20260906084819 63 142 0.0 0.0 0.00 0.00 0.00 62 1011.7
20260906084321 64 155 0.0 0.0 0.00 0.00 0.00 62 1011.7
20260906083816 64 171 0.0 0.0 0.00 0.00 0.00 62 1011.8
20260906082317 64 142 0.0 0.0 0.00 0.00 0.00 60 1011.8
20260906080940 65 161 0.0 0.0 0.00 0.00 0.00 57 1011.8
20260906080433 65 161 0.0 0.0 0.00 0.00 0.00 57 1011.9
20260906075920 65 157 0.0 0.0 0.00 0.00 0.00 57 1011.8
20260906075412 66 157 0.0 0.0 0.00 0.00 0.00 56 1011.8
20260906074906 66 153 0.0 0.0 0.00 0.00 0.00 55 1011.8
20260906074355 66 142 0.0 0.0 0.00 0.00 0.00 55 1011.8
20260906073155 66 146 0.0 0.0 0.00 0.00 0.00 57 1012.0
20260906072652 66 144 0.0 0.0 0.00 0.00 0.00 57 1012.0
20260906071154 66 157 0.0 0.0 0.00 0.00 0.00 49 1012.0
20260906070647 66 156 0.0 0.0 0.00 0.00 0.00 49 1012.1
20260906070134 66 156 0.0 0.0 0.00 0.00 0.00 49 1012.0
20260906065630 66 155 0.0 0.0 0.00 0.00 0.00 50 1012.0
20260906064525 67 151 0.0 2.0 0.00 0.00 0.00 51 1012.0
20260906064020 67 186 0.0 0.0 0.00 0.00 0.00 51 1012.1
20260906063505 67 222 0.0 0.0 0.00 0.00 0.00 52 1012.2
20260906063005 67 222 0.0 0.0 0.00 0.00 0.00 52 1012.2
20260906062501 67 222 0.0 0.0 0.00 0.00 0.00 52 1012.2
20260906061951 68 222 0.0 0.0 0.00 0.00 0.00 51 1012.2
20260906061443 68 222 0.0 0.0 0.00 0.00 0.00 52 1012.2
20260906060930 68 222 0.0 0.0 0.00 0.00 0.00 51 1012.2
20260906060425 68 222 0.0 0.0 0.00 0.00 0.00 50 1012.2
20260906055904 69 222 0.0 0.0 0.00 0.00 0.00 50 1012.2
20260906054739 69 223 0.0 0.0 0.00 0.00 0.00 50 1012.2
20260906054735 69 223 0.0 0.0 0.00 0.00 0.00 50 1012.2
20260906053701 69 223 0.0 0.0 0.00 0.00 0.00 49 1012.2
20260906053152 70 226 0.0 0.0 0.00 0.00 0.00 49 1012.3
20260906052640 70 227 0.0 0.0 0.00 0.00 0.00 49 1012.3
20260906052141 70 230 0.0 0.0 0.00 0.00 0.00 49 1012.2
20260906052113 71 231 0.0 0.0 0.00 0.00 0.00 48 1012.3
20260906050421 71 231 1.0 3.0 0.00 0.00 0.00 47 1012.2
20260906045908 71 224 0.0 0.0 0.00 0.00 0.00 47 1012.1
20260906044644 72 233 3.0 5.0 0.00 0.00 0.00 46 1012.0
20260906044140 72 224 4.0 3.0 0.00 0.00 0.00 46 1012.0
20260906043845 73 241 4.0 7.0 0.00 0.00 0.00 45 1012.0
20260906042338 73 221 4.0 2.0 0.00 0.00 0.00 45 1012.0
20260906040904 74 248 3.0 5.0 0.00 0.00 0.00 44 1011.8
20260906035418 75 240 3.0 3.0 0.00 0.00 0.00 41 1011.6
20260906034055 76 232 2.0 4.0 0.00 0.00 0.00 37 1011.7
20260906034047 75 223 2.0 6.0 0.00 0.00 0.00 38 1011.7
20260906032341 76 217 3.0 6.0 0.00 0.00 0.00 37 1011.6
20260906031839 76 205 3.0 5.0 0.00 0.00 0.00 37 1011.5
20260906031340 76 220 3.0 5.0 0.00 0.00 0.00 37 1011.4
20260906030840 76 238 3.0 3.0 0.00 0.00 0.00 37 1011.4
20260906025716 77 240 2.0 4.0 0.00 0.00 0.00 37 1011.1
20260906024133 78 233 2.0 2.0 0.00 0.00 0.00 37 1011.2
20260906022812 79 222 3.0 6.0 0.00 0.00 0.00 37 1011.3
20260906022317 79 233 2.0 2.0 0.00 0.00 0.00 38 1011.3
20260906020816 80 238 4.0 1.0 0.00 0.00 0.00 37 1011.3
20260906015729 81 233 2.0 5.0 0.00 0.00 0.00 36 1011.5
20260906015725 81 225 3.0 6.0 0.00 0.00 0.00 36 1011.5
20260906014720 82 235 2.0 1.0 0.00 0.00 0.00 36 1011.5
20260906013342 83 183 1.0 0.0 0.00 0.00 0.00 35 1011.4
20260906013337 82 234 1.0 6.0 0.00 0.00 0.00 35 1011.4
20260906012836 83 236 0.0 5.0 0.00 0.00 0.00 36 1011.4
20260906011021 83 182 1.0 0.0 0.00 0.00 0.00 34 1011.6
20260906005545 83 219 2.0 0.0 0.00 0.00 0.00 34 1011.6
20260906004642 83 240 2.0 1.0 0.00 0.00 0.00 34 1011.7
20260906003034 83 235 3.0 1.0 0.00 0.00 0.00 34 1011.8
20260906002043 83 243 2.0 6.0 0.00 0.00 0.00 35 1011.9
20260906001532 83 219 3.0 6.0 0.00 0.00 0.00 33 1011.9
20260906000654 83 215 2.0 3.0 0.00 0.00 0.00 35 1011.9
20260906000527 83 231 2.0 6.0 0.00 0.00 0.00 34 1011.9
20260906000032 83 232 1.0 2.0 0.00 0.00 0.00 35 1011.8
20260905233254 83 242 3.0 5.0 0.00 0.00 0.00 34 1011.8
20260905232754 84 248 4.0 1.0 0.00 0.00 0.00 33 1011.8
20260905231225 84 190 0.0 3.0 0.00 0.00 0.00 33 1011.9
20260905225446 85 238 2.0 6.0 0.00 0.00 0.00 34 1012.1
20260905224944 85 217 1.0 2.0 0.00 0.00 0.00 33 1012.2
20260905224511 84 222 1.0 1.0 0.00 0.00 0.00 33 1012.5
20260905222153 82 67 2.0 4.0 0.00 0.00 0.00 36 1012.5
20260905221121 83 160 0.0 4.0 0.00 0.00 0.00 34 1012.7
20260905220121 83 185 1.0 0.0 0.00 0.00 0.00 34 1012.8
20260905214713 83 229 4.0 6.0 0.00 0.00 0.00 34 1012.9
20260905214212 84 206 4.0 4.0 0.00 0.00 0.00 33 1013.0
20260905212939 83 202 1.0 1.0 0.00 0.00 0.00 34 1013.0
20260905211848 84 219 2.0 6.0 0.00 0.00 0.00 33 1013.2
20260905211348 82 13 3.0 7.0 0.00 0.00 0.00 35 1013.1
20260905211340 82 242 3.0 7.0 0.00 0.00 0.00 34 1013.1
20260905205445 82 292 1.0 5.0 0.00 0.00 0.00 35 1013.1
20260905204946 82 121 1.0 5.0 0.00 0.00 0.00 36 1013.2
20260905204442 81 236 1.0 5.0 0.00 0.00 0.00 37 1013.2
20260905203938 80 99 1.0 4.0 0.00 0.00 0.00 35 1013.2
20260905203439 80 153 2.0 0.0 0.00 0.00 0.00 37 1013.2
20260905203434 81 207 1.0 4.0 0.00 0.00 0.00 36 1013.2
20260905202047 80 234 4.0 0.0 0.00 0.00 0.00 37 1013.2
20260905200124 80 231 3.0 10.0 0.00 0.00 0.00 36 1013.3
20260905195626 81 209 3.0 3.0 0.00 0.00 0.00 35 1013.4
20260905194308 82 238 3.0 10.0 0.00 0.00 0.00 35 1013.4
20260905193755 81 258 2.0 2.0 0.00 0.00 0.00 35 1013.5
20260905192252 79 246 4.0 5.0 0.00 0.00 0.00 38 1013.6
20260905191020 80 212 1.0 7.0 0.00 0.00 0.00 39 1013.7
20260905190516 79 192 1.0 1.0 0.00 0.00 0.00 41 1013.7
20260905190016 80 200 2.0 0.0 0.00 0.00 0.00 39 1013.8
20260905185118 79 241 1.0 4.0 0.00 0.00 0.00 40 1013.8
20260905184857 79 219 3.0 2.0 0.00 0.00 0.00 38 1013.6
20260905182827 79 73 1.0 8.0 0.00 0.00 0.00 39 1013.6
20260905182324 80 234 2.0 8.0 0.00 0.00 0.00 38 1013.7
20260905181828 79 243 2.0 1.0 0.00 0.00 0.00 37 1013.6
20260905181823 79 237 2.0 4.0 0.00 0.00 0.00 37 1013.6
20260905175831 78 246 2.0 7.0 0.00 0.00 0.00 43 1013.6
20260905175327 78 252 1.0 7.0 0.00 0.00 0.00 43 1013.6
20260905174826 77 180 2.0 2.0 0.00 0.00 0.00 43 1013.5
20260905174248 78 214 2.0 5.0 0.00 0.00 0.00 46 1013.6
20260905173241 76 232 2.0 4.0 0.00 0.00 0.00 47 1013.5
20260905172738 75 346 2.0 1.0 0.00 0.00 0.00 46 1013.3
20260905171346 74 236 1.0 4.0 0.00 0.00 0.00 49 1013.3
20260905170837 74 233 1.0 4.0 0.00 0.00 0.00 49 1013.3
20260905170337 74 226 0.0 0.0 0.00 0.00 0.00 51 1013.3
20260905165450 73 218 1.0 4.0 0.00 0.00 0.00 52 1013.3
20260905164449 72 220 0.0 4.0 0.00 0.00 0.00 54 1013.2
20260905163129 70 207 1.0 3.0 0.00 0.00 0.00 56 1013.1
20260905162623 70 163 0.0 1.0 0.00 0.00 0.00 57 1013.0
20260905161115 69 186 0.0 0.0 0.00 0.00 0.00 58 1013.4
20260905155719 66 179 0.0 1.0 0.00 0.00 0.00 60 1013.1
20260905155216 66 178 0.0 0.0 0.00 0.00 0.00 62 1013.1
20260905153831 65 173 0.0 3.0 0.00 0.00 0.00 63 1013.3
20260905153815 64 177 0.0 3.0 0.00 0.00 0.00 63 1013.2
20260905152746 64 162 0.0 0.0 0.00 0.00 0.00 63 1013.2
20260905151345 63 167 0.0 1.0 0.00 0.00 0.00 66 1013.1
20260905150844 62 159 0.0 0.0 0.00 0.00 0.00 70 1012.9
20260905150337 61 159 0.0 0.0 0.00 0.00 0.00 71 1012.8
20260905145823 61 159 0.0 0.0 0.00 0.00 0.00 72 1012.8
20260905145310 62 154 0.0 0.0 0.00 0.00 0.00 71 1012.9
20260905144509 60 149 0.0 0.0 0.00 0.00 0.00 74 1012.7
20260905143504 60 149 0.0 0.0 0.00 0.00 0.00 76 1012.7
20260905143000 59 149 0.0 0.0 0.00 0.00 0.00 77 1012.7
20260905141752 56 157 0.0 0.0 0.00 0.00 0.00 81 1012.6
20260905141243 56 157 0.0 0.0 0.00 0.00 0.00 80 1012.5
20260905140715 55 157 0.0 0.0 0.00 0.00 0.00 79 1012.2
20260905140205 55 156 0.0 0.0 0.00 0.00 0.00 79 1012.1
20260905135641 55 156 0.0 0.0 0.00 0.00 0.00 78 1012.1
20260905134343 55 156 0.0 0.0 0.00 0.00 0.00 77 1012.1
20260905133253 56 156 0.0 0.0 0.00 0.00 0.00 76 1012.2
20260905132749 56 156 0.0 0.0 0.00 0.00 0.00 75 1012.0
20260905132250 56 156 0.0 0.0 0.00 0.00 0.00 75 1012.1
20260905131721 56 156 0.0 0.0 0.00 0.00 0.00 75 1012.0
20260905131216 56 155 0.0 0.0 0.00 0.00 0.00 74 1012.0
20260905130713 57 155 0.0 0.0 0.00 0.00 0.00 74 1012.0
20260905125312 57 157 0.0 0.0 0.00 0.00 0.00 73 1011.9
20260905124800 57 157 0.0 0.0 0.00 0.00 0.00 73 1011.9
20260905124257 57 156 0.0 0.0 0.00 0.00 0.00 74 1011.9
20260905123752 57 119 0.0 0.0 0.00 0.00 0.00 73 1011.9
20260905123747 57 154 0.0 0.0 0.00 0.00 0.00 73 1011.9
20260905121751 57 146 0.0 1.0 0.00 0.00 0.00 73 1011.9
20260905121725 58 166 0.0 1.0 0.00 0.00 0.00 73 1011.9
20260905120728 57 150 0.0 0.0 0.00 0.00 0.00 73 1011.9
20260905115640 57 136 0.0 0.0 0.00 0.00 0.00 75 1011.9
20260905114135 58 135 0.0 1.0 0.00 0.00 0.00 75 1012.0